Back to catalog

ELECTRON KICK STAGE R/B

AliveVLEO
NORAD 63207·ROCKET BODY·🇺🇸 United States

Launched Mar 15, 2025 from Rocket Lab Launch Complex 1

Loading…

Next Passes (next 24 hours)

TLE

FreshSource: Space-Track

Epoch: Sep 14, 2026, 05:05 UTC

1 63207U 25050C   26257.21244471  .00003646  00000-0  27167-3 0  9992
2 63207  42.0187 327.4858 0005661 328.9669  31.0824 15.04162185 82393

Track ELECTRON KICK STAGE R/B in real time with AllMySat

Download on the App Store